Printer-friendly version

IAU Minor Planet Center

Minor Planet Center

MPEC 2005-W77 : 2005 WH4

The following Minor Planet Electronic Circular may be linked-to from your own Web pages, but must not otherwise be redistributed electronically.

A form allowing access to any MPEC is at the bottom of this page.


Read MPEC 2005-W76 Read MPEC 2005-W78


M.P.E.C. 2005-W77                                Issued 2005 Nov. 27, 13:33 UT

     The Minor Planet Electronic Circulars contain information on unusual
         minor planets and routine data on comets.  They are published
   on behalf of Commission 20 of the International Astronomical Union by the
          Minor Planet Center, Smithsonian Astrophysical Observatory,
                          Cambridge, MA 02138, U.S.A.

                  Supported in part by the Brinson Foundation
                  Supported in part by the TABASGO Foundation
             Prepared using the Tamkin Foundation Computer Network

                              MPC@CFA.HARVARD.EDU
          URL http://cfa-www.harvard.edu/iau/mpc.html  ISSN 1523-6714

                                   2005 WH4

Observations:
     K05W04H* C2005 11 26.37157 04 06 35.64 -02 42 31.5          18.1 V EW077703
     K05W04H  C2005 11 26.37730 04 06 35.06 -02 41 58.9          17.9 V EW077703
     K05W04H  C2005 11 26.38302 04 06 34.52 -02 41 25.8          18.2 V EW077703
     K05W04H  C2005 11 26.38876 04 06 33.98 -02 40 53.1          18.1 V EW077703
     K05W04H  C2005 11 26.40648 04 06 32.43 -02 39 11.8          18.2 V EW077703
     K05W04H  C2005 11 26.41721 04 06 31.46 -02 38 10.7          17.9 V EW077703
     K05W04H  C2005 11 26.42793 04 06 30.49 -02 37 08.7          17.9 V EW077703
     K05W04H  C2005 11 26.43867 04 06 29.48 -02 36 07.3          17.9 V EW077703
     K05W04H  C2005 11 26.92378 04 05 53.59 -01 49 22.2                 EW077J95
     K05W04H  C2005 11 26.93307 04 05 52.78 -01 48 27.3          18.4 R EW077J95
     K05W04H  C2005 11 27.14791 04 05 36.74 -01 27 04.3          17.7 R EW077854
     K05W04H  C2005 11 27.14887 04 05 36.67 -01 26 59.6          17.7 R EW077854
     K05W04H  C2005 11 27.14983 04 05 36.55 -01 26 53.7          17.5 R EW077854
     K05W04H  C2005 11 27.28924 04 05 23.04 -01 13 00.0          17.6 R EW077711
     K05W04H  C2005 11 27.29288 04 05 22.68 -01 12 36.6                 EW077711
     K05W04H  C2005 11 27.29641 04 05 22.34 -01 12 17.0          17.8 R EW077711
     K05W04H  C2005 11 27.29962 04 05 22.38 -01 11 59.8          18.1 R EW077699
     K05W04H  C2005 11 27.33252 04 05 19.19 -01 08 42.8                 EW077699
     K05W04H  C2005 11 27.36539 04 05 16.04 -01 05 25.3                 EW077699

Observer details:
699 Lowell Observatory-LONEOS.  Observer M. E. Van Ness.  0.59-m LONEOS
    Schmidt + CCD.
703 Catalina Sky Survey.  Observer R. A. Kowalski.  Measurers E. C. Beshore,
    E. J. Christensen, G. J. Garradd, A. D. Grauer, R. E. Hill, R. A. Kowalski,
    S. M. Larson, R. H. McNaught.  0.68-m Schmidt + CCD.
711 McDonald Observatory.  Observer J. G. Ries.  0.76-m reflector + CCD.
854 Sabino Canyon Observatory, Tucson.  Observer J. E. McGaha.  0.36-m f/10.0
    Schmidt-Cassegrain + CCD.
J95 Great Shefford.  Observer P. Birtwhistle.  0.40-m f/6.0 Schmidt-Cassegrain
    + CCD.

Orbital elements:
2005 WH4
Epoch 2005 Nov. 26.0 TT = JDT 2453700.5                 MPC
M 351.08570              (2000.0)            P               Q
n   0.30858037     Peri.   17.11322     +0.01684531     -0.93427214
a   2.1688217      Node    73.08102     +0.86825446     -0.16297876
e   0.4777530      Incl.   21.85604     +0.49583306     +0.31713324
P   3.19           H   20.2           G   0.15
From 19 observations 2005 Nov. 26-27.

Ephemeris:
2005 WH4                 a,e,i = 2.17, 0.48, 22                  q = 1.1327
Date    TT    R. A. (2000) Decl.     Delta      r     Elong.  Phase     V
2005 11 26    04 07.09   -03 17.2    0.205    1.177   155.8    20.1    18.1
2005 12 01    03 59.96   +05 34.5    0.185    1.163   162.4    14.8    17.7
2005 12 06    03 51.57   +16 27.8    0.172    1.152   165.0    12.8    17.4
2005 12 11    03 42.20   +28 31.7    0.168    1.143   159.1    17.9    17.6
2005 12 16    03 32.27   +40 20.9    0.174    1.137   149.3    26.3    17.9
2005 12 21    03 22.31   +50 41.2    0.188    1.133   139.7    34.1    18.3
2005 12 26    03 13.16   +59 02.4    0.208    1.133   131.8    40.3    18.7
2005 12 31    03 05.99   +65 31.3    0.232    1.135   125.7    44.8    19.0
2006 01 05    03 02.46   +70 29.8    0.260    1.139   121.1    47.6    19.3
2006 01 10    03 04.62   +74 20.3    0.288    1.147   117.8    49.3    19.6
2006 01 15    03 15.08   +77 19.4    0.318    1.157   115.5    50.1    19.9
2006 01 20    03 37.23   +79 36.4    0.348    1.169   113.9    50.3    20.1
2006 01 25    04 14.59   +81 13.3    0.379    1.184   112.8    50.1    20.3
2006 01 30    05 07.80   +82 06.2    0.410    1.201   112.1    49.4    20.5
2006 02 04    06 09.65   +82 09.5    0.440    1.220   111.8    48.6    20.7
2006 02 09    07 07.24   +81 25.3    0.471    1.241   111.7    47.6    20.8
2006 02 14    07 52.64   +80 03.3    0.502    1.263   111.8    46.5    21.0
2006 02 19    08 25.83   +78 14.8    0.534    1.287   112.0    45.4    21.1
2006 02 24    08 49.94   +76 08.1    0.566    1.313   112.2    44.3    21.3
2006 03 01    09 08.01   +73 48.2    0.599    1.339   112.4    43.2    21.4
2006 03 06    09 22.21   +71 18.7    0.634    1.367   112.5    42.1    21.5
2006 03 11    09 33.89   +68 42.4    0.670    1.395   112.6    41.1    21.7
2006 03 16    09 43.92   +66 01.3    0.707    1.424   112.6    40.2    21.8

Brian G. Marsden             (C) Copyright 2005 MPC           M.P.E.C. 2005-W77

Read MPEC 2005-W76 Read MPEC 2005-W78


MPEC number:

Enter an
MPEC number in one of the following forms:
  • 1997-B01 (the full form)
  • J97B01 (the packed version of the full form)
  • B01 (the abbreviated form)

Valid HTML 4.01!